Tracking 17267 objects as of 31-August-2015
HD Live streaming from Space Station

TEAMSAT

Track TEAMSAT now!
10-day predictions
TEAMSAT is classified as:


NORAD ID: 25025
Int'l Code: 1997-066C
Perigee: 571.2 km
Apogee: 26,599.3 km
Inclination: 7.8 °
Period: 467.6 minutes
Semi major axis: 19956 km
RCS: 0.5073 m2 (medium)
Launch date: October 30, 1997
Source: European Space Agency (ESA)
Your satellite tracking list
Your tracking list is empty





NASA's NSSDC Master Catalog

Two Line Element Set (TLE):
1 25025U 97066C   15241.63641338 -.00000035  00000-0  30134-3 0  9992
2 25025 007.8423 045.1279 6521288 090.6822 305.1110 03.07953027200657

Source of the keplerian elements: AFSPC

N2YO: 289